Other Surface Observations
Issued by NWS

Current Version | Previous Version | Text Only | Print | Product List | Glossary On
Versions: 1 2 3 4 5 6 7 8 9 10 11 12 13 14 15 16 17 18 19 20 21 22 23 24 25 26 27 28 29 30 31 32 33 34 35 36 37 38 39 40 41 42 43 44 45 46 47 48 49 50
000
SXUS52 KTAE 260518
OSOTAE
OSOTAE
North Florida/South Alabama/Southwest Georgia Weather Roundup
National Weather Service Tallahassee Florida
100 AM EDT TUE MAY 26 2015

Note: "fair" indicates few or no clouds below 12,000 feet with no
significant weather and/or obstructions to visibility.

!FLZ017-115-028-034-025-260600
...North Florida...

CITY           SKY/WX    TMP DP  RH WIND       PRES   REMARKS
TALLAHASSEE    CLOUDY    78  66  66 SE3       30.15S
APALACHICOLA   CLEAR     76  70  82 CALM      30.13S
PERRY          PTCLDY    77  71  83 E7        30.17S
CROSS CITY       N/A     75  72  90 VRB3      30.16F
JACKSONVILLE   MOCLDY    75  73  93 E5        30.20F
$$

!FLZ112-006-005-002-011-260600
...Florida Panhandle...

CITY           SKY/WX    TMP DP  RH WIND       PRES   REMARKS
MARIANNA       PTCLDY    71  71 100 E3        30.14F
BONIFAY        FAIR      70  69  97 E3        30.15F
PANAMA CITY NW FAIR      73  70  90 E5        30.14S
TYNDALL AFB    NOT AVBL
TYND DRONE APT FAIR      73  71  93 NE5       30.14
DE FUNIAK SPR  FAIR      70  69  95 MISG      30.15S
EGLIN AFB      MOCLDY    79  74  85 NE3       30.13
DESTIN         MOCLDY    80  75  84 SE9       30.13R
HURLBURT       NOT AVBL
CRESTVIEW      CLOUDY    72  70  93 CALM      30.15S
PENSACOLA      MOCLDY    77  74  90 SE12      30.12S
$$

!ALZ063-066-260600
...South Alabama...

CITY           SKY/WX    TMP DP  RH WIND       PRES   REMARKS
DOTHAN         MOCLDY    71  69  93 E6        30.18S
OZARK CAIRNS   MOCLDY    70  69  98 NE5       30.15R
FT RUCKER HELI CLOUDY    70  68  93 NE5       30.13F
RUCKER HELI 3  MOCLDY    70  68  94 E5        30.16S
RUCKER HELI 2  FAIR      69 N/A N/A E5        30.15S
FLORALA APT    MOCLDY    70  68  93 CALM      30.16R
ANDALUSIA      NOT AVBL
TROY           MOCLDY    69  67  93 CALM      30.16R
EUFALA         FAIR      71  69  93 SE3       30.15R
MOBILE         CLOUDY    74  73  97 SE10      30.10F
$$

!GAZ120>161-260600
...Southwest and South Central Georgia...

CITY           SKY/WX    TMP DP  RH WIND       PRES   REMARKS
THOMASVILLE    FAIR      75  73  94 SE10      30.18F
BAINBRIDGE     CLOUDY    75  72  88 E3        30.17R
MOODY AFB      CLOUDY    75  70  84 E8        30.18F
VALDOSTA       MOCLDY    77  71  82 SE7       30.18F
MOULTRIE       MOCLDY    77  70  78 E5        30.18F
BLAKELY        MOCLDY    72  72 100 CALM      30.17S
ALBANY         CLOUDY    78  70  76 SE8       30.19R
TIFTON         FAIR      75  69  81 SE7       30.19S
FITZGERALD     FAIR      75  73  91 SE6       30.23S
CORDELE        MOCLDY    78  72  81 SE9G16    30.21R
AMERICUS       FAIR      73  72  94 SE6       30.21S
HOMERVILLE     FAIR      77  72  83 SE6       30.21S
$$

!GMZ750-755-770-775-260600
...Coastal and Buoy Obs...

STATION/POSITION TIME  TEMP    WIND        PRES    VSBY  WAVE
                       AIR SEA DIR/SP/G                  HT/PER
                 (UTC) (F)     (DEG/KT/KT) (MB)    (MI)  (FT/S)
KEATON BEACH     0500   78      90/  9/ 11 1021.3F
CEDAR KEY        0500   81     120/ 15/ 17 1021.7F
C TOWER          0500   79     120/  7/  7 1020.0F
APALACHICOLA BUO 0450   81 80  110/  8/ 10 1020.0F         2/ 6
PANAMA CITY BUOY 0450   80 80  140/ 10/ 12 1019.9R         3/ 6
MOBILE BUOY      0450   80 80  130/ 16/ 17 1018.8F         5/ 7
ORANGE BCH AL BU 0450   80 80  130/ 14/ 16 1018.7S         4/ 7
$$



USA.gov is the U.S. government's official web portal to all federal, state and local government web resources and services.